User: anonymous   Login
Location: Unspecified
(0.0000°N, 0.0000°E)
Time: 18:39:38
(UTC+00:00)
Language:

deb Explorer IX - Orbit

View from above orbital plane
View from above orbital plane
View from above satellite
View from above satellite

Ground track
Ground track

The orbit data is extracted from the following two-line orbital elements,

1    85U 61004C   18140.77467730 +.00002181 +00000-0 +51360-3 0  9999
2    85 038.7720 285.1968 0387049 132.8979 230.4941 14.18535437823244
Epoch (UTC): 20 May 2018 18:35:32
Eccentricity: 0.0387049
inclination: 38.7720°
perigee height: 551 km
apogee height: 1109 km
right ascension of ascending node: 285.1968°
argument of perigee: 132.8979°
revolutions per day: 14.18535437
mean anomaly at epoch: 230.4941°
orbit number at epoch: 82324

The dashed part of the orbit path shows where the satellite is in the earth's shadow,  

DLR